Location: Oberwangen
(47.4286°N, 8.9679°E)
Time: 00:35:56
(UTC+00:00)

USA 81 - Visible Passes

Search period start: 24 October 2021 00:00
Search period end: 03 November 2021 00:00
Orbit: 786 x 787 km, 85.0° (Epoch: 05 September)

Date Brightness Start Highest point End Pass type
(mag) Time Alt. Az. Time Alt. Az. Time Alt. Az.
25 Oct 6.9 05:08:44 10° NE 05:11:20 14° ENE 05:13:57 10° E visible
28 Oct 6.6 05:16:01 10° NNE 05:20:07 22° ENE 05:24:11 10° ESE visible
29 Oct 6.9 04:46:03 10° NNE 04:48:51 14° ENE 04:51:38 10° E visible
29 Oct 6.6 19:37:17 12° N 19:37:17 12° N 19:37:37 10° N visible
30 Oct 6.3 19:06:10 13° N 19:06:10 13° N 19:06:46 10° N visible
31 Oct 5.8 05:23:52 10° N 05:28:45 36° ENE 05:33:35 10° SE visible
31 Oct 6.1 18:34:55 15° NNE 18:34:55 15° NNE 18:35:45 10° NNE visible
31 Oct 6.8 20:15:31 12° NNW 20:15:31 12° NNW 20:16:09 10° NNW visible
01 Nov 6.5 04:53:24 10° NNE 04:57:37 23° ENE 05:01:47 10° ESE visible
01 Nov 5.8 18:03:25 16° NNE 18:03:25 16° NNE 18:04:34 10° NNE visible
01 Nov 6.2 19:44:00 19° NNW 19:44:00 19° NNW 19:45:44 10° N visible
02 Nov 6.9 04:23:23 10° NNE 04:26:21 15° ENE 04:29:18 10° E visible
02 Nov 5.6 17:25:18 10° SE 17:31:13 17° NE 17:33:06 10° NNE visible
02 Nov 5.2 19:04:41 10° SSW 19:11:41 37° NNW 19:15:04 10° N visible
